Time,TemperatureF,DewpointF,PressureIn,WindDirection,WindDirectionDegrees,WindSpeedMPH,WindSpeedGustMPH,Humidity,HourlyPrecipIn,Conditions,Clouds,dailyrainin,SoftwareType,DateUTC
2013-05-21 00:00:00,69.0,66.3,29.95,SW,229,0.0,0.0,91,0.00,,,0.01,Wunderground v.1.15,2013-05-21 04:00:00,
2013-05-21 00:01:00,68.9,66.2,29.95,SW,229,0.0,0.0,91,0.00,,,0.01,Wunderground v.1.15,2013-05-21 04:01:00,
2013-05-21 00:06:00,68.9,66.5,29.94,SW,229,0.0,1.0,92,0.00,,,0.00,Wunderground v.1.15,2013-05-21 04:06:00,
2013-05-21 00:07:00,68.9,66.5,29.95,SW,229,1.0,2.0,92,0.00,,,0.00,Wunderground v.1.15,2013-05-21 04:07:00,
2013-05-21 00:11:00,68.9,66.5,29.95,SW,229,2.0,2.0,92,0.00,,,0.00,Wunderground v.1.15,2013-05-21 04:11:00,
2013-05-21 00:12:00,68.8,66.4,29.95,SW,229,1.0,2.0,92,0.00,,,0.00,Wunderground v.1.15,2013-05-21 04:12:00,
2013-05-21 00:16:00,68.8,66.4,29.95,SW,229,2.0,2.0,92,0.00,,,0.00,Wunderground v.1.15,2013-05-21 04:16:00,
2013-05-21 00:17:00,68.8,66.4,29.95,SW,229,2.0,2.0,92,0.00,,,0.00,Wunderground v.1.15,2013-05-21 04:17:00,
2013-05-21 00:18:00,68.8,66.4,29.95,SW,229,0.0,2.0,92,0.00,,,0.00,Wunderground v.1.15,2013-05-21 04:18:00,
2013-05-21 00:21:00,68.8,66.4,29.95,SW,229,0.0,1.0,92,0.00,,,0.00,Wunderground v.1.15,2013-05-21 04:21:00,
2013-05-21 00:22:00,68.7,66.3,29.95,SW,229,0.0,1.0,92,0.00,,,0.00,Wunderground v.1.15,2013-05-21 04:22:00,
2013-05-21 00:23:00,68.7,66.3,29.95,SW,229,0.0,1.0,92,0.00,,,0.00,Wunderground v.1.15,2013-05-21 04:23:00,
2013-05-21 00:26:00,68.8,66.7,29.95,SW,229,0.0,1.0,93,0.00,,,0.00,Wunderground v.1.15,2013-05-21 04:26:00,
2013-05-21 00:27:00,68.8,66.4,29.95,SW,229,0.0,1.0,92,0.00,,,0.00,Wunderground v.1.15,2013-05-21 04:27:00,
2013-05-21 00:28:00,68.8,66.4,29.95,SW,229,0.0,1.0,92,0.00,,,0.00,Wunderground v.1.15,2013-05-21 04:28:00,
2013-05-21 00:31:00,68.8,66.4,29.95,SW,229,0.0,2.0,92,0.00,,,0.00,Wunderground v.1.15,2013-05-21 04:31:00,
2013-05-21 00:32:00,68.8,66.4,29.95,SW,229,0.0,2.0,92,0.00,,,0.00,Wunderground v.1.15,2013-05-21 04:32:00,
2013-05-21 00:34:00,68.8,66.4,29.95,SW,229,0.0,2.0,92,0.00,,,0.00,Wunderground v.1.15,2013-05-21 04:34:00,
2013-05-21 00:36:00,68.8,66.4,29.95,SW,229,1.0,2.0,92,0.00,,,0.00,Wunderground v.1.15,2013-05-21 04:36:00,
2013-05-21 00:37:00,68.7,66.3,29.95,SW,229,0.0,2.0,92,0.00,,,0.00,Wunderground v.1.15,2013-05-21 04:37:00,
2013-05-21 00:38:00,68.6,66.2,29.95,SW,229,0.0,2.0,92,0.00,,,0.00,Wunderground v.1.15,2013-05-21 04:38:00,
2013-05-21 00:40:00,68.5,65.8,29.95,SW,229,0.0,0.0,91,0.00,,,0.00,Wunderground v.1.15,2013-05-21 04:40:00,
2013-05-21 00:42:00,68.4,65.7,29.95,SW,229,0.0,1.0,91,0.00,,,0.00,Wunderground v.1.15,2013-05-21 04:42:00,
2013-05-21 00:43:00,68.3,65.6,29.95,SW,229,0.0,1.0,91,0.00,,,0.00,Wunderground v.1.15,2013-05-21 04:43:00,
2013-05-21 00:45:00,68.2,65.5,29.95,SW,229,0.0,1.0,91,0.00,,,0.00,Wunderground v.1.15,2013-05-21 04:45:00,
2013-05-21 00:47:00,68.0,65.6,29.95,SW,229,0.0,1.0,92,0.00,,,0.00,Wunderground v.1.15,2013-05-21 04:47:00,
2013-05-21 00:48:00,68.0,65.6,29.95,SW,229,0.0,1.0,92,0.00,,,0.00,Wunderground v.1.15,2013-05-21 04:48:00,
2013-05-21 00:50:00,68.0,65.6,29.95,SW,229,0.0,0.0,92,0.00,,,0.00,Wunderground v.1.15,2013-05-21 04:50:00,
2013-05-21 00:52:00,67.9,65.8,29.95,SW,229,0.0,1.0,93,0.00,,,0.00,Wunderground v.1.15,2013-05-21 04:52:00,
2013-05-21 00:53:00,67.9,65.8,29.95,SW,229,0.0,1.0,93,0.00,,,0.00,Wunderground v.1.15,2013-05-21 04:53:00,
2013-05-21 00:54:00,67.9,65.8,29.95,SW,229,0.0,1.0,93,0.00,,,0.00,Wunderground v.1.15,2013-05-21 04:54:00,
2013-05-21 00:55:00,67.9,65.8,29.95,SW,229,1.0,2.0,93,0.00,,,0.00,Wunderground v.1.15,2013-05-21 04:55:00,
2013-05-21 00:57:00,67.9,65.8,29.94,SW,229,1.0,2.0,93,0.00,,,0.00,Wunderground v.1.15,2013-05-21 04:57:00,
2013-05-21 00:58:00,67.9,65.8,29.94,SW,229,0.0,2.0,93,0.00,,,0.00,Wunderground v.1.15,2013-05-21 04:58:00,
2013-05-21 00:59:00,67.9,65.8,29.94,SW,229,1.0,2.0,93,0.00,,,0.00,Wunderground v.1.15,2013-05-21 04:59:00,
2013-05-21 01:00:00,67.9,65.8,29.95,SW,229,1.0,1.0,93,0.00,,,0.00,Wunderground v.1.15,2013-05-21 05:00:00,
2013-05-21 01:02:00,67.8,65.7,29.95,SW,229,0.0,2.0,93,0.00,,,0.00,Wunderground v.1.15,2013-05-21 05:02:00,
2013-05-21 01:03:00,67.7,65.6,29.95,SW,229,0.0,2.0,93,0.00,,,0.00,Wunderground v.1.15,2013-05-21 05:03:00,
2013-05-21 01:04:00,67.7,65.6,29.95,SW,229,0.0,2.0,93,0.00,,,0.00,Wunderground v.1.15,2013-05-21 05:04:00,
2013-05-21 01:06:00,67.6,65.5,29.95,SW,229,0.0,2.0,93,0.00,,,0.00,Wunderground v.1.15,2013-05-21 05:06:00,
2013-05-21 01:07:00,67.5,65.4,29.95,SW,229,0.0,2.0,93,0.00,,,0.00,Wunderground v.1.15,2013-05-21 05:07:00,
2013-05-21 01:08:00,67.5,65.4,29.95,SW,229,0.0,2.0,93,0.00,,,0.00,Wunderground v.1.15,2013-05-21 05:08:00,
2013-05-21 01:09:00,67.6,65.8,29.95,SW,229,1.0,2.0,94,0.00,,,0.00,Wunderground v.1.15,2013-05-21 05:09:00,
2013-05-21 01:11:00,67.7,65.9,29.95,SW,229,1.0,1.0,94,0.00,,,0.00,Wunderground v.1.15,2013-05-21 05:11:00,
2013-05-21 01:13:00,67.8,66.0,29.95,SW,229,1.0,2.0,94,0.00,,,0.00,Wunderground v.1.15,2013-05-21 05:13:00,
2013-05-21 01:14:00,67.8,66.0,29.95,SW,229,0.0,2.0,94,0.00,,,0.00,Wunderground v.1.15,2013-05-21 05:14:00,
2013-05-21 01:16:00,67.9,66.1,29.96,SW,229,0.0,2.0,94,0.00,,,0.00,Wunderground v.1.15,2013-05-21 05:16:00,
2013-05-21 01:18:00,68.0,66.2,29.96,SW,229,0.0,2.0,94,0.00,,,0.00,Wunderground v.1.15,2013-05-21 05:18:00,
2013-05-21 01:19:00,68.0,66.2,29.96,SW,229,0.0,2.0,94,0.00,,,0.00,Wunderground v.1.15,2013-05-21 05:19:00,
2013-05-21 01:21:00,68.1,66.3,29.96,SW,229,1.0,1.0,94,0.00,,,0.00,Wunderground v.1.15,2013-05-21 05:21:00,
2013-05-21 01:23:00,68.1,66.3,29.95,SW,229,0.0,1.0,94,0.00,,,0.00,Wunderground v.1.15,2013-05-21 05:23:00,
2013-05-21 01:24:00,68.1,66.3,29.96,SW,229,1.0,1.0,94,0.00,,,0.00,Wunderground v.1.15,2013-05-21 05:24:00,
2013-05-21 01:26:00,68.0,65.9,29.95,SW,229,0.0,1.0,93,0.00,,,0.00,Wunderground v.1.15,2013-05-21 05:26:00,
2013-05-21 01:27:00,68.0,65.9,29.95,SW,229,0.0,1.0,93,0.00,,,0.00,Wunderground v.1.15,2013-05-21 05:27:00,
2013-05-21 01:28:00,68.0,65.9,29.96,SW,229,0.0,1.0,93,0.00,,,0.00,Wunderground v.1.15,2013-05-21 05:28:00,
2013-05-21 01:29:00,67.9,65.8,29.96,SW,229,0.0,1.0,93,0.00,,,0.00,Wunderground v.1.15,2013-05-21 05:29:00,
2013-05-21 01:31:00,67.8,65.7,29.96,SW,229,0.0,0.0,93,0.00,,,0.00,Wunderground v.1.15,2013-05-21 05:31:00,
2013-05-21 01:32:00,67.8,65.7,29.96,SW,229,0.0,0.0,93,0.00,,,0.00,Wunderground v.1.15,2013-05-21 05:32:00,
2013-05-21 01:34:00,67.8,65.7,29.96,SW,229,0.0,0.0,93,0.00,,,0.00,Wunderground v.1.15,2013-05-21 05:34:00,
2013-05-21 01:35:00,67.7,65.6,29.96,SW,229,0.0,0.0,93,0.00,,,0.00,Wunderground v.1.15,2013-05-21 05:35:00,
2013-05-21 01:36:00,67.7,65.6,29.96,SW,229,0.0,0.0,93,0.00,,,0.00,Wunderground v.1.15,2013-05-21 05:36:00,
2013-05-21 01:37:00,67.7,65.6,29.96,SW,229,0.0,0.0,93,0.00,,,0.00,Wunderground v.1.15,2013-05-21 05:37:00,
2013-05-21 01:39:00,67.7,65.9,29.96,SW,229,0.0,0.0,94,0.00,,,0.00,Wunderground v.1.15,2013-05-21 05:39:00,
2013-05-21 01:40:00,67.6,65.8,29.96,SW,229,0.0,0.0,94,0.00,,,0.00,Wunderground v.1.15,2013-05-21 05:40:00,
2013-05-21 01:42:00,67.6,65.8,29.95,SW,229,0.0,1.0,94,0.00,,,0.00,Wunderground v.1.15,2013-05-21 05:42:00,
2013-05-21 01:44:00,67.6,65.8,29.95,SW,229,0.0,1.0,94,0.00,,,0.00,Wunderground v.1.15,2013-05-21 05:44:00,
2013-05-21 01:45:00,67.6,65.8,29.95,SW,229,0.0,1.0,94,0.00,,,0.00,Wunderground v.1.15,2013-05-21 05:45:00,
2013-05-21 01:47:00,67.5,65.7,29.95,SW,229,0.0,1.0,94,0.00,,,0.00,Wunderground v.1.15,2013-05-21 05:47:00,
2013-05-21 01:49:00,67.5,65.7,29.95,SW,229,0.0,1.0,94,0.00,,,0.00,Wunderground v.1.15,2013-05-21 05:49:00,
2013-05-21 01:50:00,67.4,65.6,29.95,SW,229,0.0,0.0,94,0.00,,,0.00,Wunderground v.1.15,2013-05-21 05:50:00,
2013-05-21 01:52:00,67.3,65.2,29.95,SW,229,0.0,0.0,93,0.00,,,0.00,Wunderground v.1.15,2013-05-21 05:52:00,
2013-05-21 01:54:00,67.2,65.1,29.95,SW,229,0.0,0.0,93,0.00,,,0.00,Wunderground v.1.15,2013-05-21 05:54:00,
2013-05-21 01:55:00,67.1,65.0,29.95,SW,229,0.0,0.0,93,0.00,,,0.00,Wunderground v.1.15,2013-05-21 05:55:00,
2013-05-21 01:56:00,67.1,65.3,29.95,SW,229,0.0,0.0,94,0.00,,,0.00,Wunderground v.1.15,2013-05-21 05:56:00,
2013-05-21 01:57:00,67.1,65.3,29.95,SW,229,1.0,2.0,94,0.00,,,0.00,Wunderground v.1.15,2013-05-21 05:57:00,
2013-05-21 01:59:00,67.2,65.7,29.95,SW,229,0.0,2.0,95,0.00,,,0.00,Wunderground v.1.15,2013-05-21 05:59:00,
2013-05-21 02:00:00,67.2,65.7,29.95,SW,229,2.0,2.0,95,0.00,,,0.00,Wunderground v.1.15,2013-05-21 06:00:00,
2013-05-21 02:01:00,67.2,65.7,29.95,SW,229,0.0,2.0,95,0.00,,,0.00,Wunderground v.1.15,2013-05-21 06:01:00,
2013-05-21 02:02:00,67.2,65.7,29.95,SW,229,2.0,2.0,95,0.00,,,0.00,Wunderground v.1.15,2013-05-21 06:02:00,
2013-05-21 02:04:00,67.2,65.4,29.94,SW,229,2.0,3.0,94,0.00,,,0.00,Wunderground v.1.15,2013-05-21 06:04:00,
2013-05-21 02:05:00,67.2,65.7,29.94,SW,229,0.0,3.0,95,0.00,,,0.00,Wunderground v.1.15,2013-05-21 06:05:00,
2013-05-21 02:06:00,67.3,65.8,29.94,SW,229,0.0,3.0,95,0.00,,,0.00,Wunderground v.1.15,2013-05-21 06:06:00,
2013-05-21 02:07:00,67.2,65.7,29.95,SW,229,0.0,3.0,95,0.00,,,0.00,Wunderground v.1.15,2013-05-21 06:07:00,
2013-05-21 02:09:00,67.3,65.8,29.95,SW,229,0.0,1.0,95,0.00,,,0.00,Wunderground v.1.15,2013-05-21 06:09:00,
2013-05-21 02:10:00,67.3,65.8,29.95,SW,229,0.0,1.0,95,0.00,,,0.00,Wunderground v.1.15,2013-05-21 06:10:00,
2013-05-21 02:11:00,67.4,65.9,29.95,SW,229,0.0,1.0,95,0.00,,,0.00,Wunderground v.1.15,2013-05-21 06:11:00,
2013-05-21 02:13:00,67.6,66.1,29.95,SW,229,0.0,1.0,95,0.00,,,0.00,Wunderground v.1.15,2013-05-21 06:13:00,
2013-05-21 02:15:00,67.8,66.6,29.94,SW,229,0.0,1.0,96,0.00,,,0.00,Wunderground v.1.15,2013-05-21 06:15:00,
2013-05-21 02:16:00,67.9,66.7,29.94,SW,229,0.0,1.0,96,0.00,,,0.00,Wunderground v.1.15,2013-05-21 06:16:00,
2013-05-21 02:18:00,68.1,66.9,29.94,SW,229,1.0,2.0,96,0.00,,,0.00,Wunderground v.1.15,2013-05-21 06:18:00,
2013-05-21 02:20:00,68.3,67.1,29.94,SW,229,0.0,0.0,96,0.00,,,0.00,Wunderground v.1.15,2013-05-21 06:20:00,
2013-05-21 02:22:00,68.4,67.2,29.95,SW,229,0.0,0.0,96,0.00,,,0.00,Wunderground v.1.15,2013-05-21 06:22:00,
2013-05-21 02:23:00,68.5,67.0,29.94,SW,229,0.0,1.0,95,0.00,,,0.00,Wunderground v.1.15,2013-05-21 06:23:00,
2013-05-21 02:25:00,68.6,67.1,29.94,SW,229,0.0,1.0,95,0.00,,,0.00,Wunderground v.1.15,2013-05-21 06:25:00,
2013-05-21 02:26:00,68.7,67.2,29.94,SW,229,0.0,1.0,95,0.00,,,0.00,Wunderground v.1.15,2013-05-21 06:26:00,
2013-05-21 02:27:00,68.7,66.9,29.95,SW,229,0.0,1.0,94,0.00,,,0.00,Wunderground v.1.15,2013-05-21 06:27:00,
2013-05-21 02:28:00,68.8,67.0,29.95,SW,229,0.0,2.0,94,0.00,,,0.00,Wunderground v.1.15,2013-05-21 06:28:00,
2013-05-21 02:30:00,68.9,67.1,29.95,SW,229,1.0,4.0,94,0.00,,,0.00,Wunderground v.1.15,2013-05-21 06:30:00,
2013-05-21 02:31:00,69.0,67.2,29.95,SW,229,1.0,4.0,94,0.00,,,0.00,Wunderground v.1.15,2013-05-21 06:31:00,
2013-05-21 02:32:00,69.2,67.4,29.94,SW,229,1.0,4.0,94,0.00,,,0.00,Wunderground v.1.15,2013-05-21 06:32:00,
2013-05-21 02:34:00,69.3,67.5,29.95,SW,229,0.0,4.0,94,0.00,,,0.00,Wunderground v.1.15,2013-05-21 06:34:00,
2013-05-21 02:35:00,69.4,67.3,29.95,SW,229,0.0,4.0,93,0.00,,,0.00,Wunderground v.1.15,2013-05-21 06:35:00,
2013-05-21 02:36:00,69.4,67.3,29.95,SW,229,0.0,4.0,93,0.00,,,0.00,Wunderground v.1.15,2013-05-21 06:36:00,
2013-05-21 02:37:00,69.6,67.5,29.95,SW,229,0.0,4.0,93,0.00,,,0.00,Wunderground v.1.15,2013-05-21 06:37:00,
2013-05-21 02:39:00,69.7,67.3,29.94,SW,229,0.0,4.0,92,0.00,,,0.00,Wunderground v.1.15,2013-05-21 06:39:00,
2013-05-21 02:40:00,69.8,67.4,29.94,SW,229,0.0,1.0,92,0.00,,,0.00,Wunderground v.1.15,2013-05-21 06:40:00,
2013-05-21 02:41:00,69.9,67.5,29.94,SW,229,1.0,2.0,92,0.00,,,0.00,Wunderground v.1.15,2013-05-21 06:41:00,
2013-05-21 02:43:00,70.0,67.6,29.94,SW,229,0.0,2.0,92,0.00,,,0.00,Wunderground v.1.15,2013-05-21 06:43:00,
2013-05-21 02:44:00,70.1,67.3,29.94,SW,229,1.0,2.0,91,0.00,,,0.00,Wunderground v.1.15,2013-05-21 06:44:00,
2013-05-21 02:45:00,70.1,67.3,29.94,SW,229,0.0,2.0,91,0.00,,,0.00,Wunderground v.1.15,2013-05-21 06:45:00,
2013-05-21 02:46:00,70.1,67.3,29.94,SW,229,0.0,2.0,91,0.00,,,0.00,Wunderground v.1.15,2013-05-21 06:46:00,
2013-05-21 02:48:00,70.2,67.4,29.94,SW,229,0.0,2.0,91,0.00,,,0.00,Wunderground v.1.15,2013-05-21 06:48:00,
2013-05-21 02:50:00,70.2,67.1,29.94,SW,229,0.0,0.0,90,0.00,,,0.00,Wunderground v.1.15,2013-05-21 06:50:00,
2013-05-21 02:51:00,70.2,67.1,29.94,SW,229,2.0,2.0,90,0.00,,,0.00,Wunderground v.1.15,2013-05-21 06:51:00,
2013-05-21 02:52:00,70.2,67.1,29.94,SW,229,0.0,2.0,90,0.00,,,0.00,Wunderground v.1.15,2013-05-21 06:52:00,
2013-05-21 02:53:00,70.2,67.1,29.94,SW,229,1.0,2.0,90,0.00,,,0.00,Wunderground v.1.15,2013-05-21 06:53:00,
2013-05-21 02:55:00,70.3,67.2,29.94,SW,229,1.0,3.0,90,0.00,,,0.00,Wunderground v.1.15,2013-05-21 06:55:00,
2013-05-21 02:56:00,70.3,67.2,29.94,SW,229,1.0,3.0,90,0.00,,,0.00,Wunderground v.1.15,2013-05-21 06:56:00,
2013-05-21 02:57:00,70.4,67.3,29.94,SW,229,3.0,4.0,90,0.00,,,0.00,Wunderground v.1.15,2013-05-21 06:57:00,
2013-05-21 02:58:00,70.4,67.3,29.94,SW,229,2.0,4.0,90,0.00,,,0.00,Wunderground v.1.15,2013-05-21 06:58:00,
2013-05-21 03:00:00,70.5,67.4,29.94,SW,229,1.0,1.0,90,0.00,,,0.00,Wunderground v.1.15,2013-05-21 07:00:00,
2013-05-21 03:01:00,70.6,67.5,29.94,SW,229,0.0,2.0,90,0.00,,,0.00,Wunderground v.1.15,2013-05-21 07:01:00,
2013-05-21 03:02:00,70.7,67.6,29.94,SW,229,1.0,4.0,90,0.00,,,0.00,Wunderground v.1.15,2013-05-21 07:02:00,
2013-05-21 03:03:00,70.7,67.6,29.94,SW,229,1.0,4.0,90,0.00,,,0.00,Wunderground v.1.15,2013-05-21 07:03:00,
2013-05-21 03:05:00,70.8,67.7,29.94,SW,229,0.0,4.0,90,0.00,,,0.00,Wunderground v.1.15,2013-05-21 07:05:00,
2013-05-21 03:06:00,70.8,67.4,29.94,SW,229,0.0,4.0,89,0.00,,,0.00,Wunderground v.1.15,2013-05-21 07:06:00,
2013-05-21 03:07:00,70.9,67.5,29.94,SW,229,0.0,4.0,89,0.00,,,0.00,Wunderground v.1.15,2013-05-21 07:07:00,
2013-05-21 03:08:00,70.9,67.5,29.94,SW,229,0.0,4.0,89,0.00,,,0.00,Wunderground v.1.15,2013-05-21 07:08:00,
2013-05-21 03:10:00,71.0,67.6,29.94,SW,229,0.0,1.0,89,0.00,,,0.00,Wunderground v.1.15,2013-05-21 07:10:00,
2013-05-21 03:11:00,71.0,67.6,29.94,SW,229,1.0,1.0,89,0.00,,,0.00,Wunderground v.1.15,2013-05-21 07:11:00,
2013-05-21 03:13:00,71.1,67.7,29.94,SW,229,0.0,2.0,89,0.00,,,0.00,Wunderground v.1.15,2013-05-21 07:13:00,
2013-05-21 03:15:00,71.2,67.5,29.94,SW,229,0.0,2.0,88,0.00,,,0.00,Wunderground v.1.15,2013-05-21 07:15:00,
2013-05-21 03:16:00,71.2,67.5,29.93,SW,229,0.0,2.0,88,0.00,,,0.00,Wunderground v.1.15,2013-05-21 07:16:00,
2013-05-21 03:18:00,71.3,67.6,29.94,SW,229,0.0,2.0,88,0.00,,,0.00,Wunderground v.1.15,2013-05-21 07:18:00,
2013-05-21 03:19:00,71.2,67.5,29.93,SW,229,1.0,2.0,88,0.00,,,0.00,Wunderground v.1.15,2013-05-21 07:19:00,
2013-05-21 03:21:00,71.2,67.5,29.93,SW,229,0.0,1.0,88,0.00,,,0.00,Wunderground v.1.15,2013-05-21 07:21:00,
2013-05-21 03:23:00,71.2,67.5,29.94,SW,229,0.0,1.0,88,0.00,,,0.00,Wunderground v.1.15,2013-05-21 07:23:00,
2013-05-21 03:24:00,71.1,67.4,29.94,SW,229,1.0,2.0,88,0.00,,,0.00,Wunderground v.1.15,2013-05-21 07:24:00,
2013-05-21 03:26:00,71.0,67.3,29.93,SW,229,0.0,2.0,88,0.00,,,0.00,Wunderground v.1.15,2013-05-21 07:26:00,
2013-05-21 03:28:00,71.0,67.3,29.93,SW,229,0.0,2.0,88,0.00,,,0.00,Wunderground v.1.15,2013-05-21 07:28:00,
2013-05-21 03:29:00,71.0,67.3,29.94,SW,229,0.0,2.0,88,0.00,,,0.00,Wunderground v.1.15,2013-05-21 07:29:00,
2013-05-21 03:31:00,70.9,67.2,29.94,SW,229,0.0,1.0,88,0.00,,,0.00,Wunderground v.1.15,2013-05-21 07:31:00,
2013-05-21 03:32:00,70.9,67.2,29.94,SW,229,0.0,1.0,88,0.00,,,0.00,Wunderground v.1.15,2013-05-21 07:32:00,
2013-05-21 03:33:00,70.9,67.2,29.93,SW,229,1.0,1.0,88,0.00,,,0.00,Wunderground v.1.15,2013-05-21 07:33:00,
2013-05-21 03:34:00,71.0,67.3,29.93,SW,229,0.0,1.0,88,0.00,,,0.00,Wunderground v.1.15,2013-05-21 07:34:00,
2013-05-21 03:35:00,71.0,67.3,29.93,SW,229,0.0,1.0,88,0.00,,,0.00,Wunderground v.1.15,2013-05-21 07:35:00,
2013-05-21 03:36:00,71.0,67.3,29.93,SW,229,0.0,1.0,88,0.00,,,0.00,Wunderground v.1.15,2013-05-21 07:36:00,
2013-05-21 03:37:00,70.9,67.2,29.93,SW,229,0.0,1.0,88,0.00,,,0.00,Wunderground v.1.15,2013-05-21 07:37:00,
2013-05-21 03:38:00,70.9,67.2,29.93,SW,229,1.0,1.0,88,0.00,,,0.00,Wunderground v.1.15,2013-05-21 07:38:00,
2013-05-21 03:39:00,71.0,67.3,29.93,SW,229,0.0,2.0,88,0.00,,,0.00,Wunderground v.1.15,2013-05-21 07:39:00,
2013-05-21 03:40:00,71.0,67.3,29.93,SW,229,0.0,0.0,88,0.00,,,0.00,Wunderground v.1.15,2013-05-21 07:40:00,
2013-05-21 03:42:00,71.0,67.3,29.93,SW,229,0.0,1.0,88,0.00,,,0.00,Wunderground v.1.15,2013-05-21 07:42:00,
2013-05-21 03:43:00,71.0,67.3,29.93,SW,229,0.0,1.0,88,0.00,,,0.00,Wunderground v.1.15,2013-05-21 07:43:00,
2013-05-21 03:45:00,71.0,67.3,29.93,SW,229,0.0,1.0,88,0.00,,,0.00,Wunderground v.1.15,2013-05-21 07:45:00,
2013-05-21 03:46:00,71.0,67.3,29.93,SW,229,0.0,1.0,88,0.00,,,0.00,Wunderground v.1.15,2013-05-21 07:46:00,
2013-05-21 03:47:00,71.0,67.3,29.93,SW,229,0.0,1.0,88,0.00,,,0.00,Wunderground v.1.15,2013-05-21 07:47:00,
2013-05-21 03:48:00,71.0,67.3,29.93,SW,229,0.0,1.0,88,0.00,,,0.00,Wunderground v.1.15,2013-05-21 07:48:00,
2013-05-21 03:50:00,70.9,67.2,29.93,SW,229,0.0,0.0,88,0.00,,,0.00,Wunderground v.1.15,2013-05-21 07:50:00,
2013-05-21 03:51:00,70.9,67.2,29.93,SW,229,0.0,0.0,88,0.00,,,0.00,Wunderground v.1.15,2013-05-21 07:51:00,
2013-05-21 03:52:00,70.8,67.1,29.93,SW,229,0.0,0.0,88,0.00,,,0.00,Wunderground v.1.15,2013-05-21 07:52:00,
2013-05-21 03:53:00,70.8,67.1,29.93,SW,229,0.0,0.0,88,0.00,,,0.00,Wunderground v.1.15,2013-05-21 07:53:00,
2013-05-21 03:55:00,70.7,67.0,29.93,SW,229,0.0,0.0,88,0.00,,,0.00,Wunderground v.1.15,2013-05-21 07:55:00,
2013-05-21 03:56:00,70.6,66.9,29.93,SW,229,0.0,0.0,88,0.00,,,0.00,Wunderground v.1.15,2013-05-21 07:56:00,
2013-05-21 03:58:00,70.5,67.1,29.93,SW,229,0.0,0.0,89,0.00,,,0.00,Wunderground v.1.15,2013-05-21 07:58:00,
2013-05-21 03:59:00,70.5,67.1,29.92,SW,229,0.0,0.0,89,0.00,,,0.00,Wunderground v.1.15,2013-05-21 07:59:00,
2013-05-21 04:00:00,70.5,67.1,29.92,SW,229,0.0,0.0,89,0.00,,,0.00,Wunderground v.1.15,2013-05-21 08:00:00,
2013-05-21 04:02:00,70.4,67.0,29.92,SW,229,0.0,0.0,89,0.00,,,0.00,Wunderground v.1.15,2013-05-21 08:02:00,
2013-05-21 04:03:00,70.3,66.9,29.92,SW,229,0.0,0.0,89,0.00,,,0.00,Wunderground v.1.15,2013-05-21 08:03:00,
2013-05-21 04:05:00,70.3,66.9,29.92,SW,229,1.0,1.0,89,0.00,,,0.00,Wunderground v.1.15,2013-05-21 08:05:00,
2013-05-21 04:07:00,70.2,66.8,29.93,SW,229,0.0,1.0,89,0.00,,,0.00,Wunderground v.1.15,2013-05-21 08:07:00,
2013-05-21 04:08:00,70.1,66.7,29.92,SW,229,0.0,1.0,89,0.00,,,0.00,Wunderground v.1.15,2013-05-21 08:08:00,
2013-05-21 04:09:00,70.1,66.7,29.92,SW,229,0.0,1.0,89,0.00,,,0.00,Wunderground v.1.15,2013-05-21 08:09:00,
2013-05-21 04:10:00,70.1,66.7,29.92,SW,229,0.0,0.0,89,0.00,,,0.00,Wunderground v.1.15,2013-05-21 08:10:00,
2013-05-21 04:11:00,70.0,66.6,29.92,SW,229,0.0,0.0,89,0.00,,,0.00,Wunderground v.1.15,2013-05-21 08:11:00,
2013-05-21 04:13:00,69.9,66.5,29.92,SW,229,0.0,0.0,89,0.00,,,0.00,Wunderground v.1.15,2013-05-21 08:13:00,
2013-05-21 04:14:00,69.9,66.5,29.92,SW,229,0.0,0.0,89,0.00,,,0.00,Wunderground v.1.15,2013-05-21 08:14:00,
2013-05-21 04:15:00,69.8,66.7,29.93,SW,229,0.0,0.0,90,0.00,,,0.00,Wunderground v.1.15,2013-05-21 08:15:00,
2013-05-21 04:16:00,69.7,66.6,29.93,SW,229,0.0,0.0,90,0.00,,,0.00,Wunderground v.1.15,2013-05-21 08:16:00,
2013-05-21 04:18:00,69.6,66.5,29.93,SW,229,0.0,0.0,90,0.00,,,0.00,Wunderground v.1.15,2013-05-21 08:18:00,
2013-05-21 04:19:00,69.6,66.5,29.93,SW,229,0.0,0.0,90,0.00,,,0.00,Wunderground v.1.15,2013-05-21 08:19:00,
2013-05-21 04:20:00,69.5,66.4,29.93,SW,229,1.0,2.0,90,0.00,,,0.00,Wunderground v.1.15,2013-05-21 08:20:00,
2013-05-21 04:21:00,69.4,66.3,29.92,SW,229,0.0,2.0,90,0.00,,,0.00,Wunderground v.1.15,2013-05-21 08:21:00,
2013-05-21 04:23:00,69.3,66.2,29.93,SW,229,0.0,2.0,90,0.00,,,0.00,Wunderground v.1.15,2013-05-21 08:23:00,
2013-05-21 04:24:00,69.2,66.1,29.93,SW,229,1.0,2.0,90,0.00,,,0.00,Wunderground v.1.15,2013-05-21 08:24:00,
2013-05-21 04:25:00,69.1,66.0,29.93,SW,229,0.0,2.0,90,0.00,,,0.00,Wunderground v.1.15,2013-05-21 08:25:00,
2013-05-21 04:27:00,69.0,66.3,29.92,SW,229,1.0,2.0,91,0.00,,,0.00,Wunderground v.1.15,2013-05-21 08:27:00,
2013-05-21 04:28:00,69.0,66.3,29.93,SW,229,0.0,2.0,91,0.00,,,0.00,Wunderground v.1.15,2013-05-21 08:28:00,
2013-05-21 04:29:00,68.9,66.2,29.93,SW,229,0.0,2.0,91,0.00,,,0.00,Wunderground v.1.15,2013-05-21 08:29:00,
2013-05-21 04:30:00,68.9,66.2,29.93,SW,229,0.0,0.0,91,0.00,,,0.00,Wunderground v.1.15,2013-05-21 08:30:00,
2013-05-21 04:32:00,68.8,66.4,29.92,SW,229,0.0,0.0,92,0.00,,,0.00,Wunderground v.1.15,2013-05-21 08:32:00,
2013-05-21 04:33:00,68.8,66.4,29.93,SW,229,0.0,0.0,92,0.00,,,0.00,Wunderground v.1.15,2013-05-21 08:33:00,
2013-05-21 04:34:00,68.8,66.4,29.93,SW,229,0.0,0.0,92,0.00,,,0.00,Wunderground v.1.15,2013-05-21 08:34:00,
2013-05-21 04:35:00,68.8,66.4,29.93,SW,229,0.0,1.0,92,0.00,,,0.00,Wunderground v.1.15,2013-05-21 08:35:00,
2013-05-21 04:37:00,68.7,66.3,29.93,SW,229,0.0,1.0,92,0.00,,,0.00,Wunderground v.1.15,2013-05-21 08:37:00,
2013-05-21 04:39:00,68.6,66.2,29.93,SW,229,0.0,1.0,92,0.00,,,0.00,Wunderground v.1.15,2013-05-21 08:39:00,
2013-05-21 04:40:00,68.6,66.2,29.93,SW,229,0.0,0.0,92,0.00,,,0.00,Wunderground v.1.15,2013-05-21 08:40:00,
2013-05-21 04:42:00,68.6,66.2,29.93,SW,229,0.0,0.0,92,0.00,,,0.00,Wunderground v.1.15,2013-05-21 08:42:00,
2013-05-21 04:44:00,68.4,66.0,29.93,SW,229,0.0,1.0,92,0.00,,,0.00,Wunderground v.1.15,2013-05-21 08:44:00,
2013-05-21 04:45:00,68.4,66.0,29.92,SW,229,0.0,1.0,92,0.00,,,0.00,Wunderground v.1.15,2013-05-21 08:45:00,
2013-05-21 04:47:00,68.3,65.9,29.93,SW,229,0.0,1.0,92,0.00,,,0.00,Wunderground v.1.15,2013-05-21 08:47:00,
2013-05-21 04:49:00,68.2,65.8,29.93,SW,229,1.0,1.0,92,0.00,,,0.00,Wunderground v.1.15,2013-05-21 08:49:00,
2013-05-21 04:50:00,68.1,66.0,29.93,SW,229,1.0,1.0,93,0.00,,,0.00,Wunderground v.1.15,2013-05-21 08:50:00,
2013-05-21 04:51:00,68.1,66.0,29.93,SW,229,2.0,2.0,93,0.00,,,0.00,Wunderground v.1.15,2013-05-21 08:51:00,
2013-05-21 04:52:00,68.1,66.0,29.93,SW,229,1.0,2.0,93,0.00,,,0.00,Wunderground v.1.15,2013-05-21 08:52:00,
2013-05-21 04:54:00,68.0,65.9,29.93,SW,229,1.0,2.0,93,0.00,,,0.00,Wunderground v.1.15,2013-05-21 08:54:00,
2013-05-21 04:55:00,68.0,65.9,29.93,SW,229,0.0,2.0,93,0.00,,,0.00,Wunderground v.1.15,2013-05-21 08:55:00,
2013-05-21 04:56:00,67.9,65.8,29.93,SW,229,0.0,2.0,93,0.00,,,0.00,Wunderground v.1.15,2013-05-21 08:56:00,
2013-05-21 04:57:00,67.9,65.8,29.93,SW,229,0.0,2.0,93,0.00,,,0.00,Wunderground v.1.15,2013-05-21 08:57:00,
2013-05-21 05:00:00,67.9,65.8,29.93,SW,229,0.0,0.0,93,0.00,,,0.00,Wunderground v.1.15,2013-05-21 09:00:00,
2013-05-21 05:01:00,67.8,65.7,29.93,SW,229,0.0,0.0,93,0.00,,,0.00,Wunderground v.1.15,2013-05-21 09:01:00,
2013-05-21 05:03:00,67.7,65.6,29.93,SW,229,0.0,0.0,93,0.00,,,0.00,Wunderground v.1.15,2013-05-21 09:03:00,
2013-05-21 05:05:00,67.6,65.5,29.93,SW,229,0.0,1.0,93,0.00,,,0.00,Wunderground v.1.15,2013-05-21 09:05:00,
2013-05-21 05:06:00,67.5,65.4,29.93,SW,229,0.0,1.0,93,0.00,,,0.00,Wunderground v.1.15,2013-05-21 09:06:00,
2013-05-21 05:08:00,67.4,65.0,29.93,SW,229,0.0,1.0,92,0.00,,,0.00,Wunderground v.1.15,2013-05-21 09:08:00,
2013-05-21 05:10:00,67.1,64.7,29.93,SW,229,0.0,0.0,92,0.00,,,0.00,Wunderground v.1.15,2013-05-21 09:10:00,
2013-05-21 05:11:00,66.9,64.5,29.93,SW,229,0.0,0.0,92,0.00,,,0.00,Wunderground v.1.15,2013-05-21 09:11:00,
2013-05-21 05:12:00,66.9,64.5,29.93,SW,229,0.0,0.0,92,0.00,,,0.00,Wunderground v.1.15,2013-05-21 09:12:00,
2013-05-21 05:13:00,66.8,64.1,29.93,SW,229,0.0,0.0,91,0.00,,,0.00,Wunderground v.1.15,2013-05-21 09:13:00,
2013-05-21 05:16:00,66.5,64.1,29.93,SW,229,0.0,0.0,92,0.00,,,0.00,Wunderground v.1.15,2013-05-21 09:16:00,
2013-05-21 05:17:00,66.4,64.0,29.93,SW,229,0.0,0.0,92,0.00,,,0.00,Wunderground v.1.15,2013-05-21 09:17:00,
2013-05-21 05:18:00,66.3,63.9,29.93,SW,229,0.0,0.0,92,0.00,,,0.00,Wunderground v.1.15,2013-05-21 09:18:00,
2013-05-21 05:21:00,66.1,63.7,29.93,SW,229,0.0,0.0,92,0.00,,,0.00,Wunderground v.1.15,2013-05-21 09:21:00,
2013-05-21 05:22:00,66.1,63.7,29.93,SW,229,0.0,0.0,92,0.00,,,0.00,Wunderground v.1.15,2013-05-21 09:22:00,
2013-05-21 05:23:00,66.1,64.0,29.93,SW,229,1.0,1.0,93,0.00,,,0.00,Wunderground v.1.15,2013-05-21 09:23:00,
2013-05-21 05:26:00,66.0,64.2,29.93,SW,229,0.0,1.0,94,0.00,,,0.00,Wunderground v.1.15,2013-05-21 09:26:00,
2013-05-21 05:27:00,66.0,64.2,29.93,SW,229,0.0,1.0,94,0.00,,,0.00,Wunderground v.1.15,2013-05-21 09:27:00,
2013-05-21 05:28:00,65.9,64.1,29.93,SW,229,0.0,1.0,94,0.00,,,0.00,Wunderground v.1.15,2013-05-21 09:28:00,
2013-05-21 05:32:00,65.8,64.0,29.93,SW,229,0.0,1.0,94,0.00,,,0.00,Wunderground v.1.15,2013-05-21 09:32:00,
2013-05-21 05:34:00,65.8,64.0,29.93,SW,229,0.0,1.0,94,0.00,,,0.00,Wunderground v.1.15,2013-05-21 09:34:00,
2013-05-21 05:37:00,65.6,63.8,29.93,SW,229,0.0,1.0,94,0.00,,,0.00,Wunderground v.1.15,2013-05-21 09:37:00,
2013-05-21 05:39:00,65.6,63.8,29.93,SW,229,0.0,1.0,94,0.00,,,0.00,Wunderground v.1.15,2013-05-21 09:39:00,
2013-05-21 05:42:00,65.4,63.6,29.93,SW,229,0.0,0.0,94,0.00,,,0.00,Wunderground v.1.15,2013-05-21 09:42:00,
2013-05-21 05:43:00,65.4,63.6,29.93,SW,229,0.0,0.0,94,0.00,,,0.00,Wunderground v.1.15,2013-05-21 09:43:00,
2013-05-21 05:44:00,65.4,63.6,29.93,SW,229,0.0,0.0,94,0.00,,,0.00,Wunderground v.1.15,2013-05-21 09:44:00,
2013-05-21 05:48:00,65.3,63.5,29.94,SW,229,0.0,0.0,94,0.00,,,0.00,Wunderground v.1.15,2013-05-21 09:48:00,
2013-05-21 05:49:00,65.3,63.5,29.94,SW,229,0.0,0.0,94,0.00,,,0.00,Wunderground v.1.15,2013-05-21 09:49:00,
2013-05-21 05:53:00,65.2,63.4,29.94,SW,229,0.0,0.0,94,0.00,,,0.00,Wunderground v.1.15,2013-05-21 09:53:00,
2013-05-21 05:54:00,65.1,63.3,29.94,SW,229,0.0,0.0,94,0.00,,,0.00,Wunderground v.1.15,2013-05-21 09:54:00,
2013-05-21 05:55:00,65.1,63.3,29.94,SW,229,0.0,0.0,94,0.00,,,0.00,Wunderground v.1.15,2013-05-21 09:55:00,
2013-05-21 05:58:00,65.0,63.5,29.94,SW,229,0.0,0.0,95,0.00,,,0.00,Wunderground v.1.15,2013-05-21 09:58:00,
2013-05-21 05:59:00,65.0,63.5,29.94,SW,229,0.0,0.0,95,0.00,,,0.00,Wunderground v.1.15,2013-05-21 09:59:00,
2013-05-21 06:00:00,65.0,63.5,29.94,SW,229,0.0,0.0,95,0.00,,,0.00,Wunderground v.1.15,2013-05-21 10:00:00,
2013-05-21 06:03:00,65.0,63.5,29.94,SW,229,0.0,0.0,95,0.00,,,0.00,Wunderground v.1.15,2013-05-21 10:03:00,
2013-05-21 06:04:00,64.9,63.4,29.94,SW,229,0.0,0.0,95,0.00,,,0.00,Wunderground v.1.15,2013-05-21 10:04:00,
2013-05-21 06:05:00,65.0,63.5,29.94,SW,229,0.0,0.0,95,0.00,,,0.00,Wunderground v.1.15,2013-05-21 10:05:00,
2013-05-21 06:08:00,64.9,63.4,29.94,SW,229,0.0,0.0,95,0.00,,,0.00,Wunderground v.1.15,2013-05-21 10:08:00,
2013-05-21 06:09:00,64.9,63.4,29.94,SW,229,0.0,0.0,95,0.00,,,0.00,Wunderground v.1.15,2013-05-21 10:09:00,
2013-05-21 06:10:00,64.9,63.4,29.94,SW,229,0.0,0.0,95,0.00,,,0.00,Wunderground v.1.15,2013-05-21 10:10:00,
2013-05-21 06:13:00,64.8,63.3,29.95,SW,229,0.0,0.0,95,0.00,,,0.00,Wunderground v.1.15,2013-05-21 10:13:00,
2013-05-21 06:14:00,64.8,63.3,29.95,SW,229,0.0,0.0,95,0.00,,,0.00,Wunderground v.1.15,2013-05-21 10:14:00,
2013-05-21 06:15:00,64.8,63.3,29.95,SW,229,0.0,0.0,95,0.00,,,0.00,Wunderground v.1.15,2013-05-21 10:15:00,
2013-05-21 06:16:00,64.8,63.3,29.95,SW,229,0.0,0.0,95,0.00,,,0.00,Wunderground v.1.15,2013-05-21 10:16:00,
2013-05-21 06:18:00,64.8,63.3,29.95,SW,229,0.0,0.0,95,0.00,,,0.00,Wunderground v.1.15,2013-05-21 10:18:00,
2013-05-21 06:19:00,64.7,63.2,29.95,SW,229,0.0,0.0,95,0.00,,,0.00,Wunderground v.1.15,2013-05-21 10:19:00,
2013-05-21 06:21:00,64.7,63.2,29.95,SW,229,0.0,0.0,95,0.00,,,0.00,Wunderground v.1.15,2013-05-21 10:21:00,
2013-05-21 06:24:00,64.8,63.6,29.95,SW,229,0.0,0.0,96,0.00,,,0.00,Wunderground v.1.15,2013-05-21 10:24:00,
2013-05-21 06:26:00,64.8,63.6,29.95,SW,229,0.0,0.0,96,0.00,,,0.00,Wunderground v.1.15,2013-05-21 10:26:00,
2013-05-21 06:30:00,64.8,63.6,29.95,SW,229,0.0,0.0,96,0.00,,,0.00,Wunderground v.1.15,2013-05-21 10:30:00,
2013-05-21 06:31:00,64.8,63.6,29.95,SW,229,0.0,0.0,96,0.00,,,0.00,Wunderground v.1.15,2013-05-21 10:31:00,
2013-05-21 06:35:00,64.8,63.6,29.95,SW,229,0.0,0.0,96,0.00,,,0.00,Wunderground v.1.15,2013-05-21 10:35:00,
2013-05-21 06:36:00,64.8,63.6,29.95,SW,229,0.0,1.0,96,0.00,,,0.00,Wunderground v.1.15,2013-05-21 10:36:00,
2013-05-21 06:37:00,64.9,63.7,29.95,SW,229,1.0,1.0,96,0.00,,,0.00,Wunderground v.1.15,2013-05-21 10:37:00,
2013-05-21 06:40:00,64.8,63.3,29.95,SW,229,0.0,0.0,95,0.00,,,0.00,Wunderground v.1.15,2013-05-21 10:40:00,
2013-05-21 06:41:00,64.7,63.2,29.95,SW,229,1.0,2.0,95,0.00,,,0.00,Wunderground v.1.15,2013-05-21 10:41:00,
2013-05-21 06:42:00,64.7,63.2,29.95,SW,229,1.0,2.0,95,0.00,,,0.00,Wunderground v.1.15,2013-05-21 10:42:00,
2013-05-21 06:43:00,64.6,63.1,29.95,SW,229,2.0,2.0,95,0.00,,,0.00,Wunderground v.1.15,2013-05-21 10:43:00,
2013-05-21 06:45:00,64.5,63.3,29.95,SW,229,1.0,3.0,96,0.00,,,0.00,Wunderground v.1.15,2013-05-21 10:45:00,
2013-05-21 06:46:00,64.5,63.3,29.96,N/A,-737280,0.0,-999.0,96,0.00,,,0.00,Wunderground v.1.15,2013-05-21 10:46:00,
2013-05-21 06:47:00,64.5,63.3,29.96,SW,229,0.0,3.0,96,0.00,,,0.00,Wunderground v.1.15,2013-05-21 10:47:00,
2013-05-21 06:48:00,64.5,63.3,29.95,SW,229,0.0,3.0,96,0.00,,,0.00,Wunderground v.1.15,2013-05-21 10:48:00,
2013-05-21 06:50:00,64.5,63.3,29.96,SW,229,0.0,1.0,96,0.00,,,0.00,Wunderground v.1.15,2013-05-21 10:50:00,
2013-05-21 06:51:00,64.3,63.1,29.96,SW,225,0.0,-999.0,96,0.00,,,0.00,Wunderground v.1.15,2013-05-21 10:51:00,
2013-05-21 06:52:00,64.4,63.2,29.96,SW,229,0.0,1.0,96,0.00,,,0.00,Wunderground v.1.15,2013-05-21 10:52:00,
2013-05-21 06:54:00,64.4,63.2,29.96,SW,229,0.0,1.0,96,0.00,,,0.00,Wunderground v.1.15,2013-05-21 10:54:00,
2013-05-21 06:55:00,64.3,63.1,29.96,SW,229,0.0,1.0,96,0.00,,,0.00,Wunderground v.1.15,2013-05-21 10:55:00,
2013-05-21 06:56:00,64.3,63.1,29.96,SW,225,0.0,-999.0,96,0.00,,,0.00,Wunderground v.1.15,2013-05-21 10:56:00,
2013-05-21 06:57:00,64.3,63.1,29.96,SW,229,0.0,1.0,96,0.00,,,0.00,Wunderground v.1.15,2013-05-21 10:57:00,
2013-05-21 06:59:00,64.3,63.1,29.96,SW,229,0.0,1.0,96,0.00,,,0.00,Wunderground v.1.15,2013-05-21 10:59:00,
2013-05-21 07:00:00,64.3,63.1,29.96,SW,229,0.0,1.0,96,0.00,,,0.00,Wunderground v.1.15,2013-05-21 11:00:00,
2013-05-21 07:01:00,64.2,63.0,29.96,SW,229,0.0,1.0,96,0.00,,,0.00,Wunderground v.1.15,2013-05-21 11:01:00,
2013-05-21 07:02:00,64.2,63.0,29.96,SW,229,0.0,1.0,96,0.00,,,0.00,Wunderground v.1.15,2013-05-21 11:02:00,
2013-05-21 07:03:00,64.2,63.0,29.96,SW,229,0.0,1.0,96,0.00,,,0.00,Wunderground v.1.15,2013-05-21 11:03:00,
2013-05-21 07:04:00,64.1,62.6,29.96,SW,229,0.0,1.0,95,0.00,,,0.00,Wunderground v.1.15,2013-05-21 11:04:00,
2013-05-21 07:06:00,64.0,62.5,29.96,SW,229,0.0,1.0,95,0.00,,,0.00,Wunderground v.1.15,2013-05-21 11:06:00,
2013-05-21 07:08:00,63.9,62.4,29.96,SW,229,0.0,1.0,95,0.00,,,0.00,Wunderground v.1.15,2013-05-21 11:08:00,
2013-05-21 07:10:00,63.8,62.3,29.96,SW,229,0.0,0.0,95,0.00,,,0.00,Wunderground v.1.15,2013-05-21 11:10:00,
2013-05-21 07:11:00,63.8,62.3,29.96,SW,229,0.0,0.0,95,0.00,,,0.00,Wunderground v.1.15,2013-05-21 11:11:00,
2013-05-21 07:13:00,63.8,62.6,29.96,SW,229,0.0,1.0,96,0.00,,,0.00,Wunderground v.1.15,2013-05-21 11:13:00,
2013-05-21 07:15:00,63.9,62.7,29.96,SW,229,1.0,1.0,96,0.00,,,0.00,Wunderground v.1.15,2013-05-21 11:15:00,
2013-05-21 07:16:00,63.9,62.7,29.96,SW,229,0.0,1.0,96,0.00,,,0.00,Wunderground v.1.15,2013-05-21 11:16:00,
2013-05-21 07:18:00,64.0,62.8,29.96,SW,229,2.0,2.0,96,0.00,,,0.00,Wunderground v.1.15,2013-05-21 11:18:00,
2013-05-21 07:20:00,63.9,62.7,29.96,SW,229,2.0,2.0,96,0.00,,,0.00,Wunderground v.1.15,2013-05-21 11:20:00,
2013-05-21 07:21:00,63.8,62.6,29.96,SW,229,2.0,2.0,96,0.00,,,0.00,Wunderground v.1.15,2013-05-21 11:21:00,
2013-05-21 07:23:00,63.7,62.5,29.97,SW,229,0.0,2.0,96,0.00,,,0.00,Wunderground v.1.15,2013-05-21 11:23:00,
2013-05-21 07:24:00,63.7,62.5,29.97,SW,229,0.0,2.0,96,0.00,,,0.00,Wunderground v.1.15,2013-05-21 11:24:00,
2013-05-21 07:25:00,63.7,62.5,29.97,SW,229,0.0,2.0,96,0.00,,,0.00,Wunderground v.1.15,2013-05-21 11:25:00,
2013-05-21 07:26:00,63.6,62.4,29.97,SW,229,0.0,2.0,96,0.00,,,0.00,Wunderground v.1.15,2013-05-21 11:26:00,
2013-05-21 07:28:00,63.7,62.5,29.97,SW,229,0.0,2.0,96,0.00,,,0.00,Wunderground v.1.15,2013-05-21 11:28:00,
2013-05-21 07:29:00,63.7,62.5,29.97,SW,229,0.0,2.0,96,0.00,,,0.00,Wunderground v.1.15,2013-05-21 11:29:00,
2013-05-21 07:30:00,63.7,62.5,29.97,SW,229,0.0,0.0,96,0.00,,,0.00,Wunderground v.1.15,2013-05-21 11:30:00,
2013-05-21 07:31:00,64.0,63.1,29.97,N/A,-737280,0.0,-999.0,97,0.00,,,0.00,Wunderground v.1.15,2013-05-21 11:31:00,
2013-05-21 07:36:00,64.5,63.6,29.97,N/A,-737280,0.0,-999.0,97,0.00,,,0.00,Wunderground v.1.15,2013-05-21 11:36:00,
2013-05-21 07:41:00,64.8,63.9,29.98,N/A,-737280,0.0,-999.0,97,0.00,,,0.00,Wunderground v.1.15,2013-05-21 11:41:00,
2013-05-21 07:46:00,65.0,64.1,29.98,N/A,-737280,0.0,-999.0,97,0.00,,,0.00,Wunderground v.1.15,2013-05-21 11:46:00,
2013-05-21 07:51:00,65.4,64.5,29.98,SW,225,0.0,-999.0,97,0.00,,,0.00,Wunderground v.1.15,2013-05-21 11:51:00,
2013-05-21 07:56:00,65.7,64.8,29.98,SW,225,1.0,-999.0,97,0.00,,,0.00,Wunderground v.1.15,2013-05-21 11:56:00,
2013-05-21 08:01:00,66.1,65.2,29.98,N/A,-737280,0.0,-999.0,97,0.00,,,0.00,Wunderground v.1.15,2013-05-21 12:01:00,
2013-05-21 08:06:00,66.4,65.5,29.98,SW,225,0.0,-999.0,97,0.00,,,0.00,Wunderground v.1.15,2013-05-21 12:06:00,
2013-05-21 08:11:00,66.7,65.8,29.98,SW,225,1.0,-999.0,97,0.00,,,0.00,Wunderground v.1.15,2013-05-21 12:11:00,
2013-05-21 08:16:00,66.9,66.0,29.98,SW,225,0.0,-999.0,97,0.00,,,0.00,Wunderground v.1.15,2013-05-21 12:16:00,
2013-05-21 08:21:00,67.1,66.2,29.98,SW,225,0.0,-999.0,97,0.00,,,0.00,Wunderground v.1.15,2013-05-21 12:21:00,
2013-05-21 08:26:00,67.3,66.4,29.98,SW,225,0.0,-999.0,97,0.00,,,0.00,Wunderground v.1.15,2013-05-21 12:26:00,
2013-05-21 08:31:00,67.7,66.8,29.98,SW,225,1.0,-999.0,97,0.00,,,0.00,Wunderground v.1.15,2013-05-21 12:31:00,
2013-05-21 08:36:00,68.1,67.2,29.98,SW,225,1.0,-999.0,97,0.00,,,0.00,Wunderground v.1.15,2013-05-21 12:36:00,
2013-05-21 08:41:00,68.4,67.2,29.99,SW,225,0.0,-999.0,96,0.00,,,0.00,Wunderground v.1.15,2013-05-21 12:41:00,
2013-05-21 08:46:00,68.7,67.2,29.99,SW,225,0.0,-999.0,95,0.00,,,0.00,Wunderground v.1.15,2013-05-21 12:46:00,
2013-05-21 08:51:00,69.2,67.7,29.99,SW,225,1.0,-999.0,95,0.00,,,0.00,Wunderground v.1.15,2013-05-21 12:51:00,
2013-05-21 08:56:00,69.5,68.0,29.99,SW,225,0.0,-999.0,95,0.00,,,0.00,Wunderground v.1.15,2013-05-21 12:56:00,
2013-05-21 09:01:00,69.8,68.0,29.99,SW,225,1.0,-999.0,94,0.00,,,0.00,Wunderground v.1.15,2013-05-21 13:01:00,
2013-05-21 09:06:00,70.3,68.5,29.98,SW,225,1.0,-999.0,94,0.00,,,0.00,Wunderground v.1.15,2013-05-21 13:06:00,
2013-05-21 09:11:00,70.9,68.5,29.99,SW,225,0.0,-999.0,92,0.00,,,0.00,Wunderground v.1.15,2013-05-21 13:11:00,
2013-05-21 09:16:00,71.3,68.9,29.99,SW,225,1.0,-999.0,92,0.00,,,0.00,Wunderground v.1.15,2013-05-21 13:16:00,
2013-05-21 09:21:00,71.9,69.1,29.99,SW,225,2.0,-999.0,91,0.00,,,0.00,Wunderground v.1.15,2013-05-21 13:21:00,
2013-05-21 09:26:00,72.4,69.3,29.99,SW,225,1.0,-999.0,90,0.00,,,0.00,Wunderground v.1.15,2013-05-21 13:26:00,
2013-05-21 09:31:00,72.7,69.3,29.99,SW,225,1.0,-999.0,89,0.00,,,0.00,Wunderground v.1.15,2013-05-21 13:31:00,
2013-05-21 09:36:00,72.8,69.4,29.98,SW,225,1.0,-999.0,89,0.00,,,0.00,Wunderground v.1.15,2013-05-21 13:36:00,
2013-05-21 09:41:00,73.2,69.4,29.98,SW,225,1.0,-999.0,88,0.00,,,0.00,Wunderground v.1.15,2013-05-21 13:41:00,
2013-05-21 09:46:00,73.9,70.5,29.98,SW,225,0.0,-999.0,89,0.00,,,0.00,Wunderground v.1.15,2013-05-21 13:46:00,
2013-05-21 09:51:00,74.7,71.2,29.98,SW,225,0.0,-999.0,89,0.00,,,0.00,Wunderground v.1.15,2013-05-21 13:51:00,
2013-05-21 09:56:00,75.3,70.5,29.98,SW,225,1.0,-999.0,85,0.00,,,0.00,Wunderground v.1.15,2013-05-21 13:56:00,
2013-05-21 10:01:00,75.8,71.0,29.97,SW,225,1.0,-999.0,85,0.00,,,0.00,Wunderground v.1.15,2013-05-21 14:01:00,
2013-05-21 10:06:00,76.4,71.2,29.97,SW,225,1.0,-999.0,84,0.00,,,0.00,Wunderground v.1.15,2013-05-21 14:06:00,
2013-05-21 10:11:00,76.8,71.2,29.97,SW,225,1.0,-999.0,83,0.00,,,0.00,Wunderground v.1.15,2013-05-21 14:11:00,
2013-05-21 10:16:00,77.3,71.7,29.97,SW,225,0.0,-999.0,83,0.00,,,0.00,Wunderground v.1.15,2013-05-21 14:16:00,
2013-05-21 10:21:00,78.0,72.4,29.97,SW,225,0.0,-999.0,83,0.00,,,0.00,Wunderground v.1.15,2013-05-21 14:21:00,
2013-05-21 10:26:00,78.7,72.4,29.97,SW,225,1.0,-999.0,81,0.00,,,0.00,Wunderground v.1.15,2013-05-21 14:26:00,
2013-05-21 10:31:00,79.5,72.0,29.97,SW,225,3.0,-999.0,78,0.00,,,0.00,Wunderground v.1.15,2013-05-21 14:31:00,
2013-05-21 10:36:00,79.9,72.0,29.96,SW,225,1.0,-999.0,77,0.00,,,0.00,Wunderground v.1.15,2013-05-21 14:36:00,
2013-05-21 10:41:00,80.4,72.1,29.96,SW,225,0.0,-999.0,76,0.00,,,0.00,Wunderground v.1.15,2013-05-21 14:41:00,
2013-05-21 10:46:00,80.9,73.0,29.97,SW,225,1.0,-999.0,77,0.00,,,0.00,Wunderground v.1.15,2013-05-21 14:46:00,
2013-05-21 10:51:00,80.6,70.7,29.96,SW,225,4.0,-999.0,72,0.00,,,0.00,Wunderground v.1.15,2013-05-21 14:51:00,
2013-05-21 10:56:00,80.7,72.4,29.96,SW,225,1.0,-999.0,76,0.00,,,0.00,Wunderground v.1.15,2013-05-21 14:56:00,
2013-05-21 11:01:00,81.2,72.1,29.96,SW,225,1.0,-999.0,74,0.00,,,0.00,Wunderground v.1.15,2013-05-21 15:01:00,
2013-05-21 11:06:00,81.2,70.5,29.96,SW,225,4.0,-999.0,70,0.00,,,0.00,Wunderground v.1.15,2013-05-21 15:06:00,
2013-05-21 11:11:00,80.9,71.0,29.96,SW,225,1.0,-999.0,72,0.00,,,0.00,Wunderground v.1.15,2013-05-21 15:11:00,
2013-05-21 11:16:00,81.0,71.9,29.96,SW,225,1.0,-999.0,74,0.00,,,0.00,Wunderground v.1.15,2013-05-21 15:16:00,
2013-05-21 11:21:00,81.2,71.3,29.96,SW,225,3.0,-999.0,72,0.00,,,0.00,Wunderground v.1.15,2013-05-21 15:21:00,
2013-05-21 11:26:00,81.4,71.1,29.96,SW,225,1.0,-999.0,71,0.00,,,0.00,Wunderground v.1.15,2013-05-21 15:26:00,
2013-05-21 11:31:00,81.9,72.0,29.96,SW,225,1.0,-999.0,72,0.00,,,0.00,Wunderground v.1.15,2013-05-21 15:31:00,
2013-05-21 11:36:00,82.0,70.8,29.96,SW,225,5.0,-999.0,69,0.00,,,0.00,Wunderground v.1.15,2013-05-21 15:36:00,
2013-05-21 11:41:00,82.0,72.1,29.96,SW,225,2.0,-999.0,72,0.00,,,0.00,Wunderground v.1.15,2013-05-21 15:41:00,
2013-05-21 11:46:00,82.0,71.7,29.95,SW,225,3.0,-999.0,71,0.00,,,0.00,Wunderground v.1.15,2013-05-21 15:46:00,
2013-05-21 11:51:00,81.8,71.1,29.95,SW,225,4.0,-999.0,70,0.00,,,0.00,Wunderground v.1.15,2013-05-21 15:51:00,
2013-05-21 11:56:00,82.1,73.0,29.94,SW,225,1.0,-999.0,74,0.00,,,0.00,Wunderground v.1.15,2013-05-21 15:56:00,
2013-05-21 12:01:00,82.6,72.2,29.94,SW,225,3.0,-999.0,71,0.00,,,0.00,Wunderground v.1.15,2013-05-21 16:01:00,
2013-05-21 12:06:00,82.8,73.7,29.94,SW,225,0.0,-999.0,74,0.00,,,0.00,Wunderground v.1.15,2013-05-21 16:06:00,
2013-05-21 12:11:00,83.5,74.3,29.95,SW,225,1.0,-999.0,74,0.00,,,0.00,Wunderground v.1.15,2013-05-21 16:11:00,
2013-05-21 12:16:00,84.0,72.7,29.94,SW,225,3.0,-999.0,69,0.00,,,0.00,Wunderground v.1.15,2013-05-21 16:16:00,
2013-05-21 12:21:00,84.0,72.3,29.94,SW,225,2.0,-999.0,68,0.00,,,0.00,Wunderground v.1.15,2013-05-21 16:21:00,
2013-05-21 12:26:00,84.1,72.8,29.94,SW,225,2.0,-999.0,69,0.00,,,0.00,Wunderground v.1.15,2013-05-21 16:26:00,
2013-05-21 12:31:00,84.1,73.3,29.94,SW,225,1.0,-999.0,70,0.00,,,0.00,Wunderground v.1.15,2013-05-21 16:31:00,
2013-05-21 12:36:00,84.1,73.7,29.94,SW,225,2.0,-999.0,71,0.00,,,0.00,Wunderground v.1.15,2013-05-21 16:36:00,
2013-05-21 12:41:00,84.3,73.4,29.94,SW,225,4.0,-999.0,70,0.00,,,0.00,Wunderground v.1.15,2013-05-21 16:41:00,
2013-05-21 12:46:00,84.3,72.6,29.93,SW,225,2.0,-999.0,68,0.00,,,0.00,Wunderground v.1.15,2013-05-21 16:46:00,
2013-05-21 12:51:00,84.6,72.4,29.93,SW,225,1.0,-999.0,67,0.00,,,0.00,Wunderground v.1.15,2013-05-21 16:51:00,
2013-05-21 12:56:00,84.9,72.7,29.93,SW,225,0.0,-999.0,67,0.00,,,0.00,Wunderground v.1.15,2013-05-21 16:56:00,
2013-05-21 13:01:00,85.2,72.6,29.92,SW,225,4.0,-999.0,66,0.00,,,0.00,Wunderground v.1.15,2013-05-21 17:01:00,
2013-05-21 13:06:00,85.1,71.5,29.92,SW,225,2.0,-999.0,64,0.00,,,0.00,Wunderground v.1.15,2013-05-21 17:06:00,
2013-05-21 13:11:00,85.3,74.0,29.93,SW,225,0.0,-999.0,69,0.00,,,0.00,Wunderground v.1.15,2013-05-21 17:11:00,
2013-05-21 13:16:00,85.5,72.8,29.93,SW,225,1.0,-999.0,66,0.00,,,0.00,Wunderground v.1.15,2013-05-21 17:16:00,
2013-05-21 13:21:00,85.7,72.1,29.92,SW,225,3.0,-999.0,64,0.00,,,0.00,Wunderground v.1.15,2013-05-21 17:21:00,
2013-05-21 13:26:00,85.2,70.7,29.92,SW,225,7.0,-999.0,62,0.00,,,0.00,Wunderground v.1.15,2013-05-21 17:26:00,
2013-05-21 13:31:00,85.0,71.9,29.92,SW,225,4.0,-999.0,65,0.00,,,0.00,Wunderground v.1.15,2013-05-21 17:31:00,
2013-05-21 13:36:00,85.3,72.6,29.92,SW,225,4.0,-999.0,66,0.00,,,0.00,Wunderground v.1.15,2013-05-21 17:36:00,
2013-05-21 13:41:00,85.2,70.2,29.91,SW,225,3.0,-999.0,61,0.00,,,0.00,Wunderground v.1.15,2013-05-21 17:41:00,
2013-05-21 13:46:00,85.5,72.4,29.91,SW,225,1.0,-999.0,65,0.00,,,0.00,Wunderground v.1.15,2013-05-21 17:46:00,
2013-05-21 13:51:00,86.0,72.4,29.91,SW,225,5.0,-999.0,64,0.00,,,0.00,Wunderground v.1.15,2013-05-21 17:51:00,
2013-05-21 13:56:00,86.1,72.5,29.91,SW,225,0.0,-999.0,64,0.00,,,0.00,Wunderground v.1.15,2013-05-21 17:56:00,
2013-05-21 14:01:00,86.4,71.8,29.91,SW,225,2.0,-999.0,62,0.00,,,0.00,Wunderground v.1.15,2013-05-21 18:01:00,
2013-05-21 14:06:00,86.6,72.5,29.90,SW,225,1.0,-999.0,63,0.00,,,0.00,Wunderground v.1.15,2013-05-21 18:06:00,
2013-05-21 14:11:00,86.1,70.6,29.90,SW,225,2.0,-999.0,60,0.00,,,0.00,Wunderground v.1.15,2013-05-21 18:11:00,
2013-05-21 14:16:00,86.2,74.0,29.90,SW,225,1.0,-999.0,67,0.00,,,0.00,Wunderground v.1.15,2013-05-21 18:16:00,
2013-05-21 14:21:00,86.5,73.3,29.89,SW,225,3.0,-999.0,65,0.00,,,0.00,Wunderground v.1.15,2013-05-21 18:21:00,
2013-05-21 14:26:00,86.3,70.8,29.89,SW,225,2.0,-999.0,60,0.00,,,0.00,Wunderground v.1.15,2013-05-21 18:26:00,
2013-05-21 14:31:00,86.4,71.4,29.89,SW,225,3.0,-999.0,61,0.00,,,0.00,Wunderground v.1.15,2013-05-21 18:31:00,
2013-05-21 14:36:00,86.3,71.3,29.89,SSW,203,2.0,-999.0,61,0.00,,,0.00,Wunderground v.1.15,2013-05-21 18:36:00,
2013-05-21 14:41:00,86.8,74.1,29.88,SW,225,1.0,-999.0,66,0.00,,,0.00,Wunderground v.1.15,2013-05-21 18:41:00,
2013-05-21 14:46:00,87.3,73.2,29.88,SW,225,2.0,-999.0,63,0.00,,,0.00,Wunderground v.1.15,2013-05-21 18:46:00,
2013-05-21 14:51:00,87.1,72.0,29.88,West,270,3.0,-999.0,61,0.00,,,0.00,Wunderground v.1.15,2013-05-21 18:51:00,
2013-05-21 14:56:00,87.1,73.0,29.88,West,270,1.0,-999.0,63,0.00,,,0.00,Wunderground v.1.15,2013-05-21 18:56:00,
2013-05-21 15:01:00,87.5,72.4,29.88,West,270,1.0,-999.0,61,0.00,,,0.00,Wunderground v.1.15,2013-05-21 19:01:00,
2013-05-21 15:06:00,87.6,72.5,29.88,West,270,5.0,-999.0,61,0.00,,,0.00,Wunderground v.1.15,2013-05-21 19:06:00,
2013-05-21 15:11:00,87.5,74.3,29.87,West,270,1.0,-999.0,65,0.00,,,0.00,Wunderground v.1.15,2013-05-21 19:11:00,
2013-05-21 15:16:00,87.8,73.2,29.87,West,270,0.0,-999.0,62,0.00,,,0.00,Wunderground v.1.15,2013-05-21 19:16:00,
2013-05-21 15:21:00,87.9,72.8,29.86,SW,225,2.0,-999.0,61,0.00,,,0.00,Wunderground v.1.15,2013-05-21 19:21:00,
2013-05-21 15:26:00,87.0,72.9,29.85,SW,225,3.0,-999.0,63,0.00,,,0.00,Wunderground v.1.15,2013-05-21 19:26:00,
2013-05-21 15:31:00,87.0,72.4,29.85,SW,225,0.0,-999.0,62,0.00,,,0.00,Wunderground v.1.15,2013-05-21 19:31:00,
2013-05-21 15:36:00,87.3,72.7,29.85,SW,225,4.0,-999.0,62,0.00,,,0.00,Wunderground v.1.15,2013-05-21 19:36:00,
2013-05-21 15:41:00,87.4,72.3,29.85,SW,225,3.0,-999.0,61,0.00,,,0.00,Wunderground v.1.15,2013-05-21 19:41:00,
2013-05-21 15:46:00,87.5,74.7,29.85,SW,225,1.0,-999.0,66,0.00,,,0.00,Wunderground v.1.15,2013-05-21 19:46:00,
2013-05-21 15:51:00,87.7,74.5,29.85,SW,225,2.0,-999.0,65,0.00,,,0.00,Wunderground v.1.15,2013-05-21 19:51:00,
2013-05-21 15:56:00,87.7,73.1,29.84,SW,225,0.0,-999.0,62,0.00,,,0.00,Wunderground v.1.15,2013-05-21 19:56:00,
2013-05-21 16:01:00,87.8,73.6,29.84,SW,225,2.0,-999.0,63,0.00,,,0.00,Wunderground v.1.15,2013-05-21 20:01:00,
2013-05-21 16:06:00,87.6,71.5,29.84,SW,225,2.0,-999.0,59,0.00,,,0.00,Wunderground v.1.15,2013-05-21 20:06:00,
2013-05-21 16:11:00,87.5,72.4,29.84,SW,225,2.0,-999.0,61,0.00,,,0.00,Wunderground v.1.15,2013-05-21 20:11:00,
2013-05-21 16:16:00,87.8,72.7,29.85,SW,225,1.0,-999.0,61,0.00,,,0.00,Wunderground v.1.15,2013-05-21 20:16:00,
2013-05-21 16:21:00,87.9,72.3,29.84,SW,225,0.0,-999.0,60,0.00,,,0.00,Wunderground v.1.15,2013-05-21 20:21:00,
2013-05-21 16:26:00,87.6,71.0,29.84,SW,225,1.0,-999.0,58,0.00,,,0.00,Wunderground v.1.15,2013-05-21 20:26:00,
2013-05-21 16:31:00,87.1,72.5,29.84,SW,225,1.0,-999.0,62,0.00,,,0.00,Wunderground v.1.15,2013-05-21 20:31:00,
2013-05-21 16:36:00,86.0,71.9,29.85,SW,225,1.0,-999.0,63,0.00,,,0.00,Wunderground v.1.15,2013-05-21 20:36:00,
2013-05-21 16:41:00,84.8,69.4,29.85,SW,225,3.0,-999.0,60,0.00,,,0.00,Wunderground v.1.15,2013-05-21 20:41:00,
2013-05-21 16:46:00,83.5,66.7,29.84,SSW,203,2.0,-999.0,57,0.00,,,0.00,Wunderground v.1.15,2013-05-21 20:46:00,
2013-05-21 16:51:00,82.5,66.2,29.84,SSW,203,2.0,-999.0,58,0.00,,,0.00,Wunderground v.1.15,2013-05-21 20:51:00,
2013-05-21 16:56:00,81.8,66.6,29.84,SSW,203,2.0,-999.0,60,0.00,,,0.00,Wunderground v.1.15,2013-05-21 20:56:00,
2013-05-21 17:01:00,81.3,66.1,29.85,SSW,203,2.0,-999.0,60,0.00,,,0.00,Wunderground v.1.15,2013-05-21 21:01:00,
2013-05-21 17:06:00,80.5,66.3,29.85,SSW,203,1.0,-999.0,62,0.00,,,0.00,Wunderground v.1.15,2013-05-21 21:06:00,
2013-05-21 17:11:00,79.7,66.9,29.86,SSW,203,1.0,-999.0,65,0.00,,,0.00,Wunderground v.1.15,2013-05-21 21:11:00,
2013-05-21 17:16:00,79.0,66.7,29.86,SSW,203,1.0,-999.0,66,0.00,,,0.00,Wunderground v.1.15,2013-05-21 21:16:00,
2013-05-21 17:21:00,78.7,68.9,29.87,SSW,203,0.0,-999.0,72,0.00,,,0.00,Wunderground v.1.15,2013-05-21 21:21:00,
2013-05-21 17:26:00,78.6,68.4,29.86,SSW,203,1.0,-999.0,71,0.00,,,0.00,Wunderground v.1.15,2013-05-21 21:26:00,
2013-05-21 17:31:00,78.6,67.6,29.87,SSW,203,1.0,-999.0,69,0.00,,,0.00,Wunderground v.1.15,2013-05-21 21:31:00,
2013-05-21 17:36:00,78.7,68.1,29.87,SSW,203,3.0,-999.0,70,0.00,,,0.00,Wunderground v.1.15,2013-05-21 21:36:00,
2013-05-21 17:41:00,78.6,68.4,29.87,SSW,203,4.0,-999.0,71,0.00,,,0.00,Wunderground v.1.15,2013-05-21 21:41:00,
2013-05-21 17:46:00,77.3,66.7,29.88,WSW,248,2.0,-999.0,70,0.00,,,0.00,Wunderground v.1.15,2013-05-21 21:46:00,
2013-05-21 17:51:00,76.1,66.0,29.89,West,270,2.0,-999.0,71,0.00,,,0.00,Wunderground v.1.15,2013-05-21 21:51:00,
2013-05-21 17:56:00,75.4,65.7,29.89,West,270,0.0,-999.0,72,0.00,,,0.00,Wunderground v.1.15,2013-05-21 21:56:00,
2013-05-21 18:01:00,75.0,66.1,29.88,West,270,1.0,-999.0,74,0.00,,,0.00,Wunderground v.1.15,2013-05-21 22:01:00,
2013-05-21 18:06:00,74.8,67.1,29.87,West,270,0.0,-999.0,77,0.00,,,0.00,Wunderground v.1.15,2013-05-21 22:06:00,
2013-05-21 18:11:00,74.8,66.3,29.86,West,270,0.0,-999.0,75,0.00,,,0.00,Wunderground v.1.15,2013-05-21 22:11:00,
2013-05-21 18:16:00,74.9,66.4,29.86,West,270,0.0,-999.0,75,0.00,,,0.00,Wunderground v.1.15,2013-05-21 22:16:00,
2013-05-21 18:21:00,75.1,67.0,29.85,West,270,0.0,-999.0,76,0.00,,,0.00,Wunderground v.1.15,2013-05-21 22:21:00,
2013-05-21 18:26:00,75.2,67.1,29.85,West,270,1.0,-999.0,76,0.00,,,0.00,Wunderground v.1.15,2013-05-21 22:26:00,
2013-05-21 18:31:00,75.3,66.8,29.85,West,270,0.0,-999.0,75,0.00,,,0.00,Wunderground v.1.15,2013-05-21 22:31:00,
2013-05-21 18:36:00,75.4,66.5,29.85,West,270,1.0,-999.0,74,0.00,,,0.00,Wunderground v.1.15,2013-05-21 22:36:00,
2013-05-21 18:41:00,75.4,66.9,29.85,West,270,1.0,-999.0,75,0.00,,,0.00,Wunderground v.1.15,2013-05-21 22:41:00,
2013-05-21 18:46:00,75.4,66.9,29.85,West,270,0.0,-999.0,75,0.00,,,0.00,Wunderground v.1.15,2013-05-21 22:46:00,
2013-05-21 18:51:00,75.4,67.3,29.85,West,270,1.0,-999.0,76,0.00,,,0.00,Wunderground v.1.15,2013-05-21 22:51:00,
2013-05-21 18:56:00,75.5,67.8,29.85,West,270,1.0,-999.0,77,0.00,,,0.00,Wunderground v.1.15,2013-05-21 22:56:00,
2013-05-21 19:01:00,75.5,67.4,29.84,West,270,2.0,-999.0,76,0.00,,,0.00,Wunderground v.1.15,2013-05-21 23:01:00,
2013-05-21 19:06:00,75.3,67.2,29.84,WNW,293,2.0,-999.0,76,0.00,,,0.00,Wunderground v.1.15,2013-05-21 23:06:00,
2013-05-21 19:11:00,75.0,67.3,29.84,WNW,293,2.0,-999.0,77,0.00,,,0.00,Wunderground v.1.15,2013-05-21 23:11:00,
2013-05-21 19:16:00,74.9,67.6,29.84,WNW,293,2.0,-999.0,78,0.00,,,0.00,Wunderground v.1.15,2013-05-21 23:16:00,
2013-05-21 19:21:00,74.6,67.3,29.84,NW,315,3.0,-999.0,78,0.00,,,0.00,Wunderground v.1.15,2013-05-21 23:21:00,
2013-05-21 19:26:00,74.4,67.5,29.84,NW,315,1.0,-999.0,79,0.00,,,0.00,Wunderground v.1.15,2013-05-21 23:26:00,
2013-05-21 19:31:00,74.3,67.7,29.84,NNW,338,1.0,-999.0,80,0.00,,,0.00,Wunderground v.1.15,2013-05-21 23:31:00,
2013-05-21 19:36:00,74.1,67.2,29.84,NNW,338,2.0,-999.0,79,0.00,,,0.00,Wunderground v.1.15,2013-05-21 23:36:00,
2013-05-21 19:41:00,73.9,67.3,29.84,NNW,338,2.0,-999.0,80,0.00,,,0.00,Wunderground v.1.15,2013-05-21 23:41:00,
2013-05-21 19:46:00,73.5,66.9,29.85,NNW,338,2.0,-999.0,80,0.00,,,0.00,Wunderground v.1.15,2013-05-21 23:46:00,
2013-05-21 19:51:00,73.3,66.8,29.84,NNW,338,1.0,-999.0,80,0.00,,,0.00,Wunderground v.1.15,2013-05-21 23:51:00,
2013-05-21 19:56:00,73.1,66.6,29.84,NNW,338,2.0,-999.0,80,0.00,,,0.00,Wunderground v.1.15,2013-05-21 23:56:00,
2013-05-21 20:01:00,73.0,66.8,29.84,NNW,338,1.0,-999.0,81,0.00,,,0.00,Wunderground v.1.15,2013-05-22 00:01:00,
2013-05-21 20:06:00,72.7,66.5,29.84,NNW,338,1.0,-999.0,81,0.00,,,0.00,Wunderground v.1.15,2013-05-22 00:06:00,
2013-05-21 20:11:00,72.4,66.6,29.84,NNW,338,0.0,-999.0,82,0.00,,,0.00,Wunderground v.1.15,2013-05-22 00:11:00,
2013-05-21 20:16:00,72.2,66.0,29.84,NNW,338,0.0,-999.0,81,0.00,,,0.00,Wunderground v.1.15,2013-05-22 00:16:00,
2013-05-21 20:21:00,72.1,66.3,29.85,NW,315,0.0,-999.0,82,0.00,,,0.00,Wunderground v.1.15,2013-05-22 00:21:00,
2013-05-21 20:26:00,72.0,66.2,29.85,N/A,-737280,0.0,-999.0,82,0.00,,,0.00,Wunderground v.1.15,2013-05-22 00:26:00,
2013-05-21 20:31:00,71.9,65.8,29.85,NW,315,0.0,-999.0,81,0.00,,,0.00,Wunderground v.1.15,2013-05-22 00:31:00,
2013-05-21 20:36:00,71.8,65.7,29.85,NNW,338,0.0,-999.0,81,0.00,,,0.00,Wunderground v.1.15,2013-05-22 00:36:00,
2013-05-21 20:41:00,71.7,65.9,29.85,N/A,-737280,0.0,-999.0,82,0.00,,,0.00,Wunderground v.1.15,2013-05-22 00:41:00,
2013-05-21 20:46:00,71.7,65.6,29.85,NNW,338,2.0,-999.0,81,0.00,,,0.00,Wunderground v.1.15,2013-05-22 00:46:00,
2013-05-21 20:51:00,72.3,65.1,29.85,NNW,338,0.0,-999.0,78,0.00,,,0.00,Wunderground v.1.15,2013-05-22 00:51:00,
2013-05-21 20:56:00,73.0,65.7,29.86,NNW,338,0.0,-999.0,78,0.00,,,0.00,Wunderground v.1.15,2013-05-22 00:56:00,
2013-05-21 21:01:00,73.2,66.3,29.86,N/A,-737280,0.0,-999.0,79,0.00,,,0.00,Wunderground v.1.15,2013-05-22 01:01:00,
2013-05-21 21:06:00,72.9,66.4,29.86,N/A,-737280,0.0,-999.0,80,0.00,,,0.00,Wunderground v.1.15,2013-05-22 01:06:00,
2013-05-21 21:11:00,72.4,66.2,29.85,N/A,-737280,0.0,-999.0,81,0.00,,,0.00,Wunderground v.1.15,2013-05-22 01:11:00,
2013-05-21 21:16:00,71.7,65.9,29.86,NNW,338,0.0,-999.0,82,0.00,,,0.00,Wunderground v.1.15,2013-05-22 01:16:00,
2013-05-21 21:21:00,71.2,66.1,29.86,NNW,338,3.0,-999.0,84,0.00,,,0.00,Wunderground v.1.15,2013-05-22 01:21:00,
2013-05-21 21:26:00,70.7,66.0,29.86,NNW,338,1.0,-999.0,85,0.00,,,0.00,Wunderground v.1.15,2013-05-22 01:26:00,
2013-05-21 21:31:00,70.3,65.9,29.86,NNW,338,2.0,-999.0,86,0.00,,,0.00,Wunderground v.1.15,2013-05-22 01:31:00,
2013-05-21 21:36:00,70.1,66.0,29.86,NNW,338,1.0,-999.0,87,0.00,,,0.00,Wunderground v.1.15,2013-05-22 01:36:00,
2013-05-21 21:41:00,69.9,65.9,29.87,NNW,338,0.0,-999.0,87,0.00,,,0.00,Wunderground v.1.15,2013-05-22 01:41:00,
2013-05-21 21:46:00,69.6,65.9,29.87,NNW,338,1.0,-999.0,88,0.00,,,0.00,Wunderground v.1.15,2013-05-22 01:46:00,
2013-05-21 21:51:00,69.7,65.7,29.86,NNW,338,2.0,-999.0,87,0.00,,,0.00,Wunderground v.1.15,2013-05-22 01:51:00,
2013-05-21 21:56:00,70.2,65.5,29.87,NNW,338,1.0,-999.0,85,0.00,,,0.00,Wunderground v.1.15,2013-05-22 01:56:00,
2013-05-21 22:01:00,71.2,65.8,29.87,NNW,338,2.0,-999.0,83,0.00,,,0.00,Wunderground v.1.15,2013-05-22 02:01:00,
2013-05-21 22:06:00,72.2,66.0,29.87,NNW,338,0.0,-999.0,81,0.00,,,0.00,Wunderground v.1.15,2013-05-22 02:06:00,
2013-05-21 22:11:00,72.9,66.0,29.87,NNW,338,1.0,-999.0,79,0.00,,,0.00,Wunderground v.1.15,2013-05-22 02:11:00,
2013-05-21 22:16:00,73.5,65.8,29.87,NE,45,4.0,-999.0,77,0.00,,,0.00,Wunderground v.1.15,2013-05-22 02:16:00,
2013-05-21 22:21:00,74.1,66.0,29.87,NE,45,1.0,-999.0,76,0.00,,,0.00,Wunderground v.1.15,2013-05-22 02:21:00,
2013-05-21 22:26:00,74.4,66.0,29.87,SE,135,7.0,-999.0,75,0.00,,,0.00,Wunderground v.1.15,2013-05-22 02:26:00,
2013-05-21 22:31:00,74.7,66.2,29.87,SE,135,3.0,-999.0,75,0.00,,,0.00,Wunderground v.1.15,2013-05-22 02:31:00,
2013-05-21 22:36:00,74.8,66.0,29.87,SE,135,2.0,-999.0,74,0.00,,,0.00,Wunderground v.1.15,2013-05-22 02:36:00,
2013-05-21 22:41:00,74.9,65.7,29.87,SSE,158,3.0,-999.0,73,0.00,,,0.00,Wunderground v.1.15,2013-05-22 02:41:00,
2013-05-21 22:46:00,74.9,65.3,29.87,SE,135,4.0,-999.0,72,0.00,,,0.00,Wunderground v.1.15,2013-05-22 02:46:00,
2013-05-21 22:51:00,75.1,65.5,29.87,East,90,3.0,-999.0,72,0.00,,,0.00,Wunderground v.1.15,2013-05-22 02:51:00,
2013-05-21 22:56:00,75.2,65.1,29.88,SE,135,7.0,-999.0,71,0.00,,,0.00,Wunderground v.1.15,2013-05-22 02:56:00,
2013-05-21 23:01:00,75.4,64.9,29.88,SSE,158,4.0,-999.0,70,0.00,,,0.00,Wunderground v.1.15,2013-05-22 03:01:00,
2013-05-21 23:06:00,75.5,64.6,29.88,South,180,4.0,-999.0,69,0.00,,,0.00,Wunderground v.1.15,2013-05-22 03:06:00,
2013-05-21 23:11:00,75.5,64.6,29.89,SSE,158,4.0,-999.0,69,0.00,,,0.00,Wunderground v.1.15,2013-05-22 03:11:00,
2013-05-21 23:16:00,75.5,64.6,29.89,South,180,3.0,-999.0,69,0.00,,,0.00,Wunderground v.1.15,2013-05-22 03:16:00,
2013-05-21 23:21:00,75.5,65.0,29.89,South,180,1.0,-999.0,70,0.00,,,0.00,Wunderground v.1.15,2013-05-22 03:21:00,
2013-05-21 23:26:00,75.3,65.6,29.89,East,90,2.0,-999.0,72,0.00,,,0.00,Wunderground v.1.15,2013-05-22 03:26:00,
2013-05-21 23:31:00,74.5,66.4,29.89,SE,135,2.0,-999.0,76,0.00,,,0.00,Wunderground v.1.15,2013-05-22 03:31:00,
2013-05-21 23:36:00,73.6,66.3,29.89,South,180,2.0,-999.0,78,0.00,,,0.00,Wunderground v.1.15,2013-05-22 03:36:00,
2013-05-21 23:41:00,73.0,66.5,29.89,SSE,158,1.0,-999.0,80,0.00,,,0.00,Wunderground v.1.15,2013-05-22 03:41:00,
2013-05-21 23:46:00,72.6,66.1,29.88,SSE,158,1.0,-999.0,80,0.00,,,0.00,Wunderground v.1.15,2013-05-22 03:46:00,
2013-05-21 23:51:00,72.4,66.2,29.87,SSE,158,3.0,-999.0,81,0.00,,,0.00,Wunderground v.1.15,2013-05-22 03:51:00,
2013-05-21 23:56:00,72.1,65.9,29.87,SSE,158,1.0,-999.0,81,0.00,,,0.00,Wunderground v.1.15,2013-05-22 03:56:00,